Dover AFB, DE

7:56 AM EST on January 22, 2018 (GMT -0500)
Dover Air Force Base

Weather History for KDOV - December, 2013

Change the Weather History Date:

Thursday, December 12, 2013

  Actual Average Record
Temperature  
Mean Temperature 26 °F -  
Max Temperature 30 °F 47 °F 69 °F (2015)
Min Temperature 22 °F 31 °F 8 °F (1988)
Degree Days  
Heating Degree Days 39    
Moisture  
Dew Point 17 °F    
Average Humidity 67    
Maximum Humidity 92    
Minimum Humidity 49    
Precipitation  
Precipitation 0.00 in - - ()
Sea Level Pressure  
Sea Level Pressure 30.32 in    
Wind  
Wind Speed 8 mph (WNW)    
Max Wind Speed 14 mph    
Max Gust Speed -    
Visibility 10 miles    
Events      
Averages and records for this station are not official NWS values.
T = Trace of Precipitation, MM = Missing Value Source: NWS Daily Summary

Daily Weather History Graph

Daily Weather History Graph

Search for Another Location

Airport or City:

Trip Planner

Search our weather history database for the weather conditions in past years. The results will help you decide how hot, cold, wet, or windy it might be!

Date:

Astronomy

Dec. 12, 2013 Rise Set
Actual Time 7:11 AM EST 4:39 PM EST
Civil Twilight 6:41 AM EST 5:09 PM EST
Nautical Twilight 6:08 AM EST 5:43 PM EST
Astronomical Twilight 5:35 AM EST 6:15 PM EST
Moon 1:43 PM EST (12/12) 2:33 AM EST (12/12)
Length of Visible Light 10h 27m
Length of Day
9h 27m
Waxing Gibbous, 80% of the Moon is Illuminated
Dec 12
Waxing Gibbous
Dec 17
Full
Dec 25
Last Quarter
Jan 1
New
Jan 7
First Quarter

Hourly Weather History & Observations

Time (EST) Temp. Windchill Dew Point Humidity Pressure Visibility Wind Dir Wind Speed Gust Speed Precip Events Conditions
12:58 AM 28.2 °F 24.4 °F 22.3 °F 78% 30.24 in 6.2 mi WNW 3.5 mph - N/A   Clear
1:58 AM 27.0 °F - 24.8 °F 92% 30.24 in 10.0 mi SSW 2.3 mph - N/A   Clear
2:58 AM 29.3 °F 19.1 °F 24.1 °F 81% 30.27 in 10.0 mi NW 12.7 mph - N/A   Clear
3:58 AM 28.0 °F 17.0 °F 21.6 °F 77% 30.29 in 10.0 mi NNW 13.8 mph - N/A   Clear
4:58 AM 25.9 °F 15.3 °F 19.6 °F 77% 30.30 in 10.0 mi NW 11.5 mph - N/A   Clear
5:58 AM 25.2 °F 15.1 °F 18.9 °F 77% 30.32 in 10.0 mi NW 10.4 mph - N/A   Clear
7:55 AM 26.2 °F 16.4 °F 18.9 °F 74% 30.37 in 10.0 mi NW 10.4 mph - N/A   Clear
7:58 AM 26.2 °F 15.2 °F 18.9 °F 74% 30.37 in 10.0 mi NW 12.7 mph - N/A   Clear
8:58 AM 26.6 °F 16.8 °F 18.3 °F 71% 30.39 in 10.0 mi NNW 10.4 mph - N/A   Clear
9:58 AM 27.3 °F 17.1 °F 17.2 °F 66% 30.40 in 10.0 mi NW 11.5 mph - N/A   Partly Cloudy
10:58 AM 27.7 °F 17.1 °F 15.1 °F 59% 30.39 in 10.0 mi NNW 12.7 mph - N/A   Partly Cloudy
11:58 AM 28.9 °F 19.2 °F 15.6 °F 58% 30.36 in 10.0 mi NW 11.5 mph - N/A   Clear
12:58 PM 30.2 °F 21.9 °F 17.4 °F 59% 30.33 in 10.0 mi WNW 9.2 mph - N/A   Clear
1:58 PM 30.2 °F 21.9 °F 16.0 °F 56% 30.31 in 10.0 mi West 9.2 mph - N/A   Clear
2:58 PM 30.0 °F 20.5 °F 13.8 °F 51% 30.32 in 10.0 mi WNW 11.5 mph - N/A   Clear
3:58 PM 29.1 °F 20.0 °F 12.2 °F 49% 30.32 in 10.0 mi West 10.4 mph - N/A   Clear
4:58 PM 27.5 °F 19.3 °F 12.6 °F 54% 30.32 in 10.0 mi West 8.1 mph - N/A   Clear
5:58 PM 25.7 °F 19.0 °F 12.0 °F 56% 30.33 in 10.0 mi West 5.8 mph - N/A   Clear
6:58 PM 24.4 °F 17.5 °F 12.2 °F 60% 30.34 in 10.0 mi WSW 5.8 mph - N/A   Clear
7:58 PM 24.6 °F 16.7 °F 12.0 °F 59% 30.33 in 10.0 mi SW 6.9 mph - N/A   Clear
8:58 PM 23.7 °F 14.7 °F 13.8 °F 66% 30.31 in 10.0 mi SSW 8.1 mph - N/A   Clear
9:58 PM 22.6 °F 18.0 °F 14.7 °F 72% 30.28 in 10.0 mi South 3.5 mph - N/A   Clear
10:58 PM 22.5 °F 14.1 °F 14.5 °F 72% 30.26 in 10.0 mi SSW 6.9 mph - N/A   Clear
11:58 PM 23.2 °F 15.0 °F 15.8 °F 73% 30.25 in 10.0 mi SSW 6.9 mph - N/A   Clear